Hourly Data Report for May 25, 2022

TORONTO CITY
ONTARIO
Current Station Operator: ECCC - MSC

43°40'00.000" N
79°24'00.000" W
112.50 m
6158355
71508
XTO

Download Data

Hourly Data (May 2022)
Hourly Data Report for May 25, 2022
TIME
LST
Temp Definition
°C
Dew Point Definition
°C
Rel Hum Definition
%
Precip. Amount Definition
mm

Wind Dir Definition
10's deg

Wind Spd Definition
km/h
Visibility Definition
km
Stn Press Definition
kPa
Hmdx Definition


Wind Chill Definition


Weather Definition


00:00 13.3 3.7 52 0.0       101.22     LegendNANA
01:00 13.2 4.1 54 0.0       101.22     LegendNANA
02:00 13.9 4.6 53 0.0       101.19     LegendNANA
03:00 12.7 4.9 59 0.0       101.19     LegendNANA
04:00 12.2 4.9 61 0.0       101.17     LegendNANA
05:00 12.0 4.9 62 0.0       101.23     LegendNANA
06:00 13.3 5.3 58 0.0       101.27     LegendNANA
07:00 15.0 4.9 51 0.0       101.27     LegendNANA
08:00 15.3 5.8 53 0.0       101.34     LegendNANA
09:00 14.7 6.9 60 0.0       101.31     LegendNANA
10:00 15.1 7.0 58 0.0       101.30     LegendNANA
11:00 17.7 6.8 49 0.0       101.24     LegendNANA
12:00 17.8 6.5 47 0.0       101.17     LegendNANA
13:00 18.6 5.1 41 0.0       101.12     LegendNANA
14:00 17.5 5.2 44 0.0       101.02     LegendNANA
15:00 16.2 6.9 54 0.0       100.95     LegendNANA
16:00 16.4 9.0 61 0.0       100.88     LegendNANA
17:00 16.9 10.0 64 0.0       100.80     LegendNANA
18:00 17.0 10.4 65 0.0       100.72     LegendNANA
19:00 16.5 10.6 68 0.0       100.69     LegendNANA
20:00 16.2 10.8 70 0.0       100.64     LegendNANA
21:00 15.3 9.5 68 0.0       100.60     LegendNANA
22:00 14.6 8.2 65 0.0       100.50     LegendNANA
23:00 14.8 9.5 71 0.0       100.45     LegendNANA

Notes on Data Quality.

Legend

  • E = Estimated
  • M = Missing
  • NA = Not Available*
  • [empty] = Indicates an unobserved value
Date modified: